• In Germany
  • List of Countries
  • For 7 days
  • Water Temperature
  • Satellite Maps
  • Weather Map
  • Weather Widgets
  • user-avatar
    Login

    Hourly Weather Annaba

    Today, 20 August, Sunday

    Time Temperature Precipitation Wind Pressure Humidity
    00:00 +28°C° 0 mm 2 mps 761 mmHg 74%
    01:00 +28°C° 0 mm 1 mps 761 mmHg 76%
    02:00 +27°C° 0 mm 1 mps 761 mmHg 78%
    03:00 +27°C° 0 mm 2 mps 761 mmHg 79%
    04:00 +26°C° 0 mm 2 mps 761 mmHg 80%
    05:00 +27°C° 0 mm 2 mps 761 mmHg 79%
    06:00 +27°C° 0 mm 2 mps 761 mmHg 78%
    07:00 +27°C° 0 mm 1 mps 761 mmHg 76%
    08:00 +29°C° 0 mm 2 mps 761 mmHg 68%
    09:00 +30°C° 0 mm 2 mps 762 mmHg 59%
    10:00 +33°C° 0 mm 3 mps 762 mmHg 50%
    11:00 +34°C° 0 mm 3 mps 762 mmHg 47%
    12:00 +35°C° 0 mm 4 mps 762 mmHg 44%
    13:00 +36°C° 0 mm 4 mps 761 mmHg 41%
    14:00 +35°C° 0 mm 4 mps 761 mmHg 41%
    15:00 +35°C° 0 mm 5 mps 761 mmHg 42%
    16:00 +35°C° 0 mm 5 mps 761 mmHg 42%
    17:00 +33°C° 0 mm 4 mps 761 mmHg 46%
    18:00 +32°C° 0 mm 4 mps 761 mmHg 49%
    19:00 +30°C° 0 mm 4 mps 761 mmHg 53%
    20:00 +29°C° 0 mm 3 mps 762 mmHg 56%
    21:00 +28°C° 0 mm 3 mps 762 mmHg 60%
    22:00 +27°C° 0 mm 2 mps 762 mmHg 64%
    23:00 +27°C° 0 mm 2 mps 762 mmHg 65%

    Tomorrow, 21 August, Monday

    Time Temperature Precipitation Wind Pressure Humidity
    00:00 +26°C° 0 mm 3 mps 762 mmHg 67%
    01:00 +26°C° 0 mm 3 mps 762 mmHg 68%
    02:00 +26°C° 0 mm 3 mps 762 mmHg 68%
    03:00 +25°C° 0 mm 3 mps 761 mmHg 69%
    04:00 +25°C° 0 mm 3 mps 761 mmHg 69%
    05:00 +25°C° 0 mm 3 mps 761 mmHg 67%
    06:00 +26°C° 0 mm 3 mps 761 mmHg 65%
    07:00 +26°C° 0 mm 3 mps 761 mmHg 63%
    08:00 +27°C° 0 mm 3 mps 761 mmHg 56%
    09:00 +29°C° 0 mm 4 mps 761 mmHg 50%
    10:00 +30°C° 0 mm 4 mps 761 mmHg 43%
    11:00 +32°C° 0 mm 4 mps 761 mmHg 40%
    12:00 +33°C° 0 mm 5 mps 761 mmHg 36%
    13:00 +34°C° 0 mm 5 mps 760 mmHg 32%
    14:00 +34°C° 0 mm 5 mps 760 mmHg 34%
    15:00 +34°C° 0 mm 5 mps 760 mmHg 35%
    16:00 +33°C° 0 mm 5 mps 760 mmHg 37%
    17:00 +32°C° 0 mm 4 mps 760 mmHg 43%
    18:00 +30°C° 0 mm 4 mps 760 mmHg 49%
    19:00 +28°C° 0 mm 3 mps 760 mmHg 55%
    20:00 +28°C° 0 mm 2 mps 761 mmHg 59%
    21:00 +27°C° 0 mm 2 mps 761 mmHg 64%
    22:00 +26°C° 0 mm 1 mps 761 mmHg 68%
    23:00 +26°C° 0 mm 1 mps 761 mmHg 70%

    Day after tomorrow, 22 August, Tuesday

    Time Temperature Precipitation Wind Pressure Humidity
    00:00 +25°C° 0 mm 1 mps 761 mmHg 72%
    01:00 +25°C° 0 mm 1 mps 761 mmHg 73%
    02:00 +24°C° 0 mm 1 mps 761 mmHg 73%
    03:00 +24°C° 0 mm 1 mps 761 mmHg 73%
    04:00 +24°C° 0 mm 1 mps 760 mmHg 73%
    05:00 +24°C° 0 mm 1 mps 760 mmHg 71%
    06:00 +25°C° 0 mm 1 mps 761 mmHg 68%
    07:00 +25°C° 0 mm 1 mps 761 mmHg 65%
    08:00 +27°C° 0 mm 1 mps 761 mmHg 56%
    09:00 +29°C° 0 mm 1 mps 761 mmHg 46%
    10:00 +30°C° 0 mm 0 mps 761 mmHg 37%
    11:00 +33°C° 0 mm 1 mps 761 mmHg 34%
    12:00 +35°C° 0 mm 2 mps 761 mmHg 32%
    13:00 +35°C° 0 mm 3 mps 760 mmHg 29%
    14:00 +35°C° 0 mm 3 mps 760 mmHg 32%
    15:00 +35°C° 0 mm 4 mps 760 mmHg 34%
    16:00 +35°C° 0 mm 4 mps 759 mmHg 36%
    17:00 +34°C° 0 mm 4 mps 759 mmHg 42%
    18:00 +31°C° 0 mm 3 mps 759 mmHg 49%
    19:00 +30°C° 0 mm 3 mps 759 mmHg 55%
    20:00 +29°C° 0 mm 3 mps 760 mmHg 60%
    21:00 +28°C° 0 mm 2 mps 760 mmHg 65%
    22:00 +27°C° 0 mm 2 mps 761 mmHg 70%
    23:00 +27°C° 0 mm 2 mps 761 mmHg 70%

    23 August, Wednesday

    Time Temperature Precipitation Wind Pressure Humidity
    00:00 +26°C° 0 mm 1 mps 760 mmHg 71%
    01:00 +26°C° 0 mm 1 mps 760 mmHg 72%
    02:00 +26°C° 0 mm 1 mps 760 mmHg 72%
    03:00 +26°C° 0 mm 1 mps 760 mmHg 73%
    04:00 +25°C° 0 mm 1 mps 760 mmHg 73%
    05:00 +26°C° 0 mm 1 mps 760 mmHg 72%
    06:00 +26°C° 0 mm 1 mps 760 mmHg 70%
    07:00 +27°C° 0 mm 1 mps 760 mmHg 68%
    08:00 +29°C° 0 mm 1 mps 760 mmHg 60%
    09:00 +31°C° 0 mm 2 mps 761 mmHg 53%
    10:00 +34°C° 0 mm 2 mps 761 mmHg 45%
    11:00 +35°C° 0 mm 3 mps 761 mmHg 41%
    12:00 +36°C° 0 mm 3 mps 760 mmHg 37%
    13:00 +37°C° 0 mm 4 mps 760 mmHg 33%
    14:00 +37°C° 0 mm 5 mps 760 mmHg 34%
    15:00 +37°C° 0 mm 5 mps 760 mmHg 35%
    16:00 +38°C° 0 mm 6 mps 759 mmHg 35%
    17:00 +35°C° 0 mm 5 mps 759 mmHg 40%
    18:00 +34°C° 0 mm 5 mps 760 mmHg 45%
    19:00 +32°C° 0 mm 5 mps 760 mmHg 50%
    20:00 +32°C° 0 mm 4 mps 760 mmHg 54%
    21:00 +30°C° 0 mm 4 mps 760 mmHg 58%
    22:00 +29°C° 0 mm 3 mps 761 mmHg 62%
    23:00 +28°C° 0 mm 3 mps 761 mmHg 63%

    24 August, Thursday

    Time Temperature Precipitation Wind Pressure Humidity
    00:00 +28°C° 0 mm 3 mps 760 mmHg 64%
    01:00 +28°C° 0 mm 2 mps 760 mmHg 65%
    02:00 +28°C° 0 mm 2 mps 760 mmHg 65%
    03:00 +28°C° 0 mm 2 mps 760 mmHg 65%
    04:00 +27°C° 0 mm 2 mps 760 mmHg 66%
    05:00 +28°C° 0 mm 2 mps 760 mmHg 65%
    06:00 +28°C° 0 mm 3 mps 760 mmHg 65%
    07:00 +28°C° 0 mm 3 mps 760 mmHg 64%
    08:00 +31°C° 0 mm 3 mps 761 mmHg 57%
    09:00 +34°C° 0 mm 3 mps 761 mmHg 50%
    10:00 +36°C° 0 mm 3 mps 761 mmHg 43%
    11:00 +37°C° 0 mm 3 mps 760 mmHg 39%
    12:00 +38°C° 0 mm 4 mps 760 mmHg 35%
    13:00 +40°C° 0 mm 5 mps 760 mmHg 31%
    14:00 +40°C° 0 mm 5 mps 760 mmHg 32%
    15:00 +40°C° 0 mm 6 mps 759 mmHg 32%
    16:00 +40°C° 0 mm 6 mps 759 mmHg 33%
    17:00 +38°C° 0 mm 6 mps 759 mmHg 37%
    18:00 +36°C° 0 mm 6 mps 759 mmHg 41%
    19:00 +34°C° 0 mm 6 mps 759 mmHg 46%
    20:00 +33°C° 0 mm 5 mps 760 mmHg 49%
    21:00 +32°C° 0 mm 5 mps 760 mmHg 53%
    22:00 +32°C° 0 mm 4 mps 760 mmHg 56%
    23:00 +30°C° 0 mm 4 mps 760 mmHg 56%

    25 August, Friday

    Time Temperature Precipitation Wind Pressure Humidity
    00:00 +30°C° 0 mm 4 mps 760 mmHg 56%
    01:00 +30°C° 0 mm 3 mps 760 mmHg 57%
    02:00 +30°C° 0 mm 3 mps 760 mmHg 56%
    03:00 +29°C° 0 mm 3 mps 760 mmHg 56%
    04:00 +29°C° 0 mm 3 mps 759 mmHg 56%
    05:00 +29°C° 0 mm 3 mps 760 mmHg 56%
    06:00 +30°C° 0 mm 3 mps 760 mmHg 55%
    07:00 +30°C° 0 mm 3 mps 760 mmHg 55%
    08:00 +33°C° 0 mm 3 mps 760 mmHg 49%
    09:00 +35°C° 0 mm 3 mps 760 mmHg 43%
    10:00 +37°C° 0 mm 3 mps 760 mmHg 37%
    11:00 +39°C° 0 mm 3 mps 760 mmHg 33%
    12:00 +41°C° 0 mm 4 mps 760 mmHg 30%
    13:00 +42°C° 0 mm 4 mps 759 mmHg 27%
    14:00 +42°C° 0 mm 4 mps 759 mmHg 28%
    15:00 +42°C° 0 mm 5 mps 759 mmHg 28%
    16:00 +41°C° 0 mm 6 mps 758 mmHg 28%
    17:00 +40°C° 0 mm 5 mps 758 mmHg 31%
    18:00 +39°C° 0 mm 5 mps 759 mmHg 34%
    19:00 +36°C° 0 mm 4 mps 759 mmHg 37%
    20:00 +35°C° 0 mm 4 mps 759 mmHg 38%
    21:00 +34°C° 0 mm 4 mps 759 mmHg 39%
    22:00 +34°C° 0 mm 4 mps 760 mmHg 41%
    23:00 +33°C° 0 mm 4 mps 759 mmHg 40%
    Show more